RH
25 25 24 24 23 22 22 21 20 19 18 17 16 16 16 15 16 16 17 18 18 18 17 16 15 14 13 13 13 12 11 11 11 10 10 9 9 8 8 8 8 7 7 7 7 7 7 6 6 6 6 6 6 6 6 5 5 5 5 5 5 5 5 5 6 6 6 6 6 6 6 6 6 7 7 7 7 7 7 8 8 8 8 8 8
30 30 30 31 30 28 27 26 25 24 23 22 22 23 23 21 19 18 17 16 17 18 18 18 18 19 19 17 16 15 14 13 12 12 12 11 11 11 10 10 10 10 10 9 9 9 9 9 9 8 8 8 8 8 8 7 7 7 7 7 7 7 7 7 7 7 7 8 8 8 8 8 9 9 9 10 10 10 11 11 11 11 11 11 11
35 34 34 37 38 37 35 33 32 31 29 28 27 28 29 28 27 25 23 20 19 18 17 17 18 21 21 21 20 18 17 15 15 14 13 13 12 12 12 12 11 11 11 12 12 11 11 11 11 11 10 10 10 9 9 10 9 9 9 9 9 9 9 9 9 9 9 9 10 10 10 10 11 12 12 13 13 13 13 13 13 13 13 12 12
39 38 37 41 43 44 44 44 42 41 40 38 34 32 31 32 32 33 32 29 25 22 20 18 18 19 19 20 20 19 18 19 19 18 17 17 16 15 15 14 15 15 14 14 14 14 13 13 13 13 13 12 12 11 11 11 11 11 11 11 11 10 11 11 11 12 12 12 12 12 12 13 13 14 14 14 13 13 12 12 12 12 12 11 11
42 42 42 44 46 48 49 49 49 50 50 49 46 42 38 36 36 38 38 37 35 32 28 26 23 21 20 19 19 18 19 21 23 24 24 24 23 23 22 21 20 19 19 18 17 16 16 15 15 15 14 14 13 13 13 13 13 13 12 12 12 12 12 13 13 13 13 13 13 13 14 14 15 15 15 14 13 13 13 13 13 14 15 15 15
44 46 48 49 49 50 51 51 52 53 54 55 54 52 48 46 45 46 46 45 43 40 38 36 34 31 27 23 21 20 20 22 24 26 28 28 29 31 30 29 28 26 24 23 22 21 20 19 18 17 17 16 15 15 15 15 14 14 14 14 13 13 13 13 13 14 14 14 14 14 15 16 16 16 17 17 17 17 17 18 19 20 21 21 21
44 47 50 51 51 51 51 52 53 54 55 56 57 57 56 53 52 53 56 57 56 52 48 46 44 42 39 33 28 24 22 22 24 26 27 28 30 32 32 31 31 31 31 30 29 28 27 25 24 22 21 20 18 18 17 17 17 16 15 15 15 15 15 15 14 15 15 16 16 18 19 20 21 22 23 24 25 25 25 25 25 25 26 25 25
45 46 47 49 51 51 51 52 53 55 56 57 59 60 61 60 59 59 62 65 66 65 62 57 54 52 49 45 39 32 28 25 24 26 27 28 28 29 29 30 30 31 32 33 33 34 33 32 31 29 27 26 24 22 21 20 19 18 18 17 17 17 17 17 17 18 19 22 24 25 25 26 27 29 31 32 31 31 31 30 29 29 28 27 27
50 49 49 49 50 51 52 54 56 57 59 60 61 62 63 63 63 64 67 70 71 71 70 69 66 63 61 58 53 45 37 32 29 28 28 27 27 29 28 28 29 30 32 33 34 36 36 36 36 35 34 32 30 28 26 24 23 23 22 21 21 21 22 23 24 26 28 30 31 30 30 32 33 35 37 37 35 34 33 33 32 31 31 30 30
57 57 57 58 59 60 60 61 62 62 62 63 63 64 66 68 68 69 70 72 74 74 74 74 73 73 72 70 68 63 54 46 39 36 34 32 31 30 29 29 29 30 33 34 35 37 38 40 39 38 39 38 37 35 33 30 28 28 27 27 28 29 30 32 34 35 36 36 35 34 34 36 38 39 40 39 37 35 34 35 36 35 33 32 32
49 50 51 53 57 61 65 67 68 70 72 72 71 69 69 71 73 74 75 75 76 77 77 77 76 76 76 76 76 74 71 65 58 52 48 44 42 37 33 32 31 32 34 34 36 38 39 41 42 42 43 44 43 42 41 39 36 34 34 34 35 37 38 39 40 40 41 39 38 37 38 40 41 42 42 40 39 38 36 35 36 36 34 33 33
59 59 59 57 54 51 52 54 56 59 64 69 73 76 78 80 81 82 82 80 78 79 80 80 80 79 77 77 77 77 77 77 75 72 67 62 58 52 44 39 36 34 35 34 35 38 40 42 45 47 48 48 48 48 47 45 43 42 41 41 41 42 42 43 44 44 45 43 43 43 44 44 45 44 43 42 40 38 35 33 34 36 35 35 37
54 59 64 67 68 64 60 61 61 53 50 54 58 63 68 73 78 83 86 86 84 82 82 82 83 83 82 78 75 76 78 80 81 81 80 78 76 70 63 55 47 40 36 34 35 41 44 46 49 52 52 51 51 51 51 50 49 48 47 47 46 45 45 46 47 48 48 46 45 45 44 43 44 43 43 43 41 39 37 36 37 39 39 39 41
19 24 29 35 46 56 59 67 73 67 60 57 55 56 59 60 63 69 77 84 86 85 84 84 83 84 86 85 81 77 75 77 81 83 83 83 84 83 79 74 65 54 46 39 37 42 46 47 50 54 53 51 49 48 49 50 51 51 50 48 47 46 45 46 47 47 47 45 42 42 41 41 43 43 43 44 43 42 43 42 42 43 43 43 45
6 7 8 9 15 26 36 47 63 74 75 72 67 63 63 62 61 65 74 85 90 89 86 85 84 84 85 87 87 85 80 77 78 82 86 86 85 84 83 83 78 69 61 53 45 44 43 43 46 49 50 49 47 45 45 47 49 50 50 49 47 45 44 45 46 45 46 45 44 43 44 44 45 46 46 46 46 47 48 47 46 48 48 47 48
8 7 7 8 8 14 23 32 47 61 67 72 76 75 72 72 71 73 80 85 88 89 89 86 84 84 85 87 88 89 89 86 83 83 84 86 88 87 87 89 87 78 72 66 59 54 49 46 47 48 49 49 47 44 42 43 46 47 48 48 48 46 46 46 47 47 48 48 48 47 47 48 49 49 49 49 49 50 50 49 49 50 50 50 49
10 10 9 9 9 10 14 18 26 33 35 40 51 57 60 65 72 76 75 74 75 79 85 90 90 87 86 87 90 92 93 93 92 91 88 86 88 88 88 92 94 90 85 81 78 75 69 63 58 56 56 57 55 52 49 48 47 45 43 45 46 46 46 46 47 47 48 49 49 49 48 49 50 50 50 50 50 51 52 52 52 53 53 53 53
12 12 12 11 11 10 11 12 16 22 27 33 40 46 51 59 71 78 74 68 68 72 79 87 92 94 93 91 90 92 95 96 96 95 94 92 91 90 90 93 98 98 96 93 94 95 92 85 76 68 64 63 63 62 60 59 56 51 47 47 48 48 48 47 48 48 49 50 49 49 49 49 49 50 50 51 52 53 54 54 54 55 56 55 55
16 15 15 15 14 13 13 12 13 15 21 28 35 43 52 60 72 85 88 83 76 71 72 78 84 91 96 97 95 94 94 95 95 94 94 93 93 95 96 98 100 101 101 99 99 101 101 99 94 86 75 68 66 67 67 66 63 61 58 56 55 54 53 52 51 51 52 52 51 51 51 50 50 52 52 52 53 54 55 56 56 57 57 57 57
19 18 18 17 17 16 15 15 14 14 14 15 17 21 27 33 40 53 72 88 93 86 76 72 76 84 90 94 95 96 96 94 93 92 92 94 96 98 99 100 100 100 101 101 102 102 102 101 101 99 93 83 73 68 68 70 70 69 67 65 64 64 63 62 61 60 59 58 57 56 55 53 53 54 53 53 54 55 56 57 57 58 58 59 60
21 21 20 20 19 18 18 17 16 15 14 13 13 13 12 13 14 17 27 48 75 93 93 84 80 83 89 95 98 98 98 98 97 97 97 97 99 101 101 101 100 99 99 101 102 102 102 101 100 101 102 98 91 81 72 69 71 73 72 72 71 71 72 72 71 71 71 70 68 66 64 62 60 59 57 57 57 57 58 59 60 61 62 63 64
24 23 22 22 22 21 20 19 18 17 16 15 14 13 12 11 11 11 10 13 27 52 76 90 93 90 89 94 100 102 103 102 101 101 102 101 101 101 101 102 102 99 98 100 101 101 100 99 98 100 102 102 101 96 88 79 73 71 72 73 73 73 76 78 77 78 80 81 81 79 76 74 72 71 68 66 65 63 62 62 63 64 65 67 68
28 26 25 24 23 23 23 22 21 20 19 18 17 16 15 13 12 11 12 11 10 14 28 49 72 90 97 96 95 97 101 103 103 103 103 103 102 103 102 102 103 101 99 99 98 98 98 98 98 99 100 103 103 101 99 94 86 80 76 74 73 74 76 78 78 79 81 84 87 88 87 86 86 87 87 86 85 82 79 76 74 74 73 73 74
35 33 31 29 28 28 27 27 26 25 23 22 21 20 18 17 17 15 13 13 13 12 11 14 26 50 77 95 99 98 97 99 101 102 103 103 104 104 102 101 101 101 101 100 97 94 93 95 98 99 99 102 103 101 101 101 100 96 91 87 85 84 84 85 86 88 89 91 94 96 96 95 95 96 98 99 99 98 96 93 92 92 90 89 89
45 43 41 39 36 35 34 34 32 31 30 29 28 27 25 22 21 20 19 17 15 15 15 13 11 14 29 51 72 87 96 100 102 102 100 100 101 101 102 102 101 100 100 101 100 99 95 93 94 98 100 101 102 101 100 101 101 101 100 100 99 97 97 97 98 99 99 99 100 101 101 100 99 100 101 101 101 101 100 99 99 99 100 99 100
58 55 52 49 46 45 44 42 40 38 37 36 35 34 32 30 27 25 23 22 21 19 17 17 16 14 12 15 24 38 56 73 88 97 100 101 101 100 100 101 101 101 101 102 101 103 103 99 97 97 99 101 103 102 101 100 100 100 100 101 100 101 101 100 100 101 101 101 101 101 101 101 101 100 101 102 102 101 100 101 100 100 101 101 101
72 68 65 62 60 59 57 54 51 49 47 46 45 44 41 38 35 33 31 28 26 25 24 22 20 19 18 16 14 14 17 26 40 57 74 85 94 99 101 102 101 100 100 101 102 104 104 102 101 100 100 102 103 102 102 101 100 100 100 100 100 101 100 100 100 100 100 101 101 100 101 103 102 100 100 101 102 102 101 101 102 103 102 102 102
89 86 84 82 79 77 74 71 68 65 62 59 57 55 53 49 45 43 41 40 37 33 31 29 27 25 23 21 20 18 16 14 15 20 31 45 62 81 95 101 101 101 101 100 100 101 102 102 102 102 102 102 101 101 102 101 100 100 100 101 100 100 100 100 101 101 101 101 101 102 101 102 103 100 98 100 100 101 102 101 101 102 102 102 103
100 100 99 99 98 96 94 91 87 82 77 73 69 66 64 62 59 56 54 52 50 47 42 38 34 31 28 26 25 23 21 19 17 15 15 19 32 55 77 91 95 95 98 100 102 101 100 100 101 102 103 101 100 101 101 101 100 100 100 101 101 100 100 100 100 101 103 101 101 101 94 91 98 101 99 100 101 100 100 100 100 100 101 102 101
99 100 101 102 104 104 103 101 98 95 91 87 84 81 78 75 72 71 69 66 62 58 55 51 45 40 35 31 29 27 25 24 22 20 18 15 17 27 45 65 79 84 86 90 96 101 102 101 100 100 100 100 101 101 100 100 101 100 100 101 101 100 99 99 99 101 104 103 101 96 84 81 94 102 100 100 100 100 100 100 100 101 101 100 100
100 101 101 101 100 99 98 97 96 95 93 91 90 89 87 86 84 82 80 76 71 67 63 60 56 51 45 40 36 33 30 28 26 24 22 20 18 16 19 30 47 65 76 81 84 88 93 99 101 101 101 100 100 100 100 100 100 100 100 101 102 100 98 99 100 102 104 103 99 88 72 72 91 102 100 100 100 100 100 100 100 101 100 100 100
90 90 92 94 93 90 87 85 84 84 83 81 80 80 81 82 82 82 81 77 74 72 70 66 61 55 51 46 43 39 36 34 31 28 25 23 21 19 17 15 18 29 46 63 75 80 85 90 93 97 100 100 100 100 100 101 101 102 102 101 101 101 100 100 100 102 105 102 93 78 61 65 88 100 100 100 100 100 101 100 100 100 99 100 100
75 75 77 79 81 80 77 74 73 73 73 72 70 68 68 70 71 72 72 73 73 73 72 68 64 59 54 50 46 43 41 38 35 33 29 27 24 21 20 18 16 15 16 27 43 58 71 82 86 88 92 97 100 100 99 100 102 104 103 102 103 102 102 102 100 102 106 101 88 73 64 71 88 97 99 100 100 100 100 100 100 100 100 100 100
65 64 63 63 64 65 65 65 63 62 63 64 64 63 62 62 63 64 65 67 69 71 71 68 66 62 59 56 52 48 45 41 38 35 32 29 27 24 21 19 18 17 15 13 15 21 33 47 59 68 78 91 100 102 99 99 100 102 102 101 102 103 101 101 99 100 106 104 90 77 76 84 92 96 99 100 99 100 101 100 100 100 100 100 100
55 53 50 48 47 45 44 44 44 44 45 46 48 52 55 57 59 60 62 64 65 67 68 67 66 64 62 59 56 53 49 45 41 38 34 31 28 25 23 21 18 16 16 15 14 13 14 17 24 33 48 74 97 101 99 100 99 99 102 102 101 101 100 99 99 98 102 105 96 79 76 86 94 97 100 100 100 101 101 100 100 100 100 100 100
52 48 45 41 38 35 32 30 28 26 25 25 27 31 37 45 52 55 59 62 64 66 68 67 66 64 62 59 57 54 51 47 43 39 35 31 28 24 21 20 19 17 16 15 15 16 17 18 21 21 28 58 94 104 98 100 101 98 101 102 100 100 100 99 99 98 100 104 101 88 81 87 94 97 99 100 100 100 100 100 100 100 100 100 100
51 48 46 42 37 33 30 30 29 27 25 22 20 19 21 28 37 47 55 62 66 67 67 66 64 62 61 61 59 55 50 46 42 37 33 29 25 23 21 19 19 19 20 21 21 22 22 24 29 31 29 44 79 101 100 98 101 101 100 100 100 100 100 100 100 99 98 101 103 99 95 95 97 99 100 100 100 100 100 100 100 100 100 100 100
59 55 50 43 37 36 38 38 36 33 31 28 25 22 19 21 28 39 49 56 62 64 62 62 63 65 64 63 61 56 50 45 39 34 30 28 25 23 22 21 21 22 24 27 29 30 31 31 33 38 37 35 55 88 104 100 98 101 101 99 100 100 100 100 100 100 100 100 100 101 100 99 99 99 100 100 100 100 100 100 100 100 100 100 100
81 77 65 50 41 42 47 46 42 39 38 36 33 28 24 23 28 36 43 50 54 55 56 62 69 72 70 67 63 56 49 42 38 34 32 32 33 33 33 30 28 26 26 30 33 33 35 35 33 36 41 38 42 64 91 101 100 100 100 100 100 100 100 100 99 99 100 100 100 100 100 100 100 100 100 100 100 100 100 100 100 100 100 100 100
96 97 86 68 55 52 53 50 46 44 43 41 39 35 31 29 30 35 40 44 47 53 62 74 80 80 75 69 61 53 46 41 39 41 44 47 48 51 55 56 53 47 41 37 37 36 35 36 34 32 35 39 39 45 63 86 99 102 100 100 101 100 100 100 100 100 100 99 100 100 100 100 100 100 100 100 100 100 100 100 100 100 100 100 100
100 103 98 86 71 63 59 56 53 52 50 47 43 39 34 33 36 42 46 51 61 74 86 90 87 80 71 62 54 48 46 47 49 50 53 57 57 58 63 67 67 63 58 50 46 43 40 38 38 36 34 36 40 41 46 62 85 100 103 100 99 100 101 100 100 100 100 100 100 100 100 100 100 100 100 100 100 101 100 100 101 100 100 100 100
100 99 97 90 80 72 68 67 67 65 62 55 48 44 45 51 61 69 74 79 89 98 98 91 82 71 62 57 55 55 56 59 62 61 61 63 64 61 60 62 62 60 57 54 50 48 47 45 43 43 41 40 42 45 44 47 61 82 98 103 101 99 100 101 101 100 100 100 100 100 100 101 100 100 100 100 100 101 100 100 100 100 100 101 100
102 96 91 85 81 80 80 79 78 77 75 70 67 69 76 84 91 97 99 101 105 102 92 81 72 65 63 65 68 72 74 76 78 79 77 76 74 70 68 68 66 62 58 54 50 47 46 45 43 43 44 46 46 47 48 47 48 55 70 86 95 96 95 95 98 101 101 101 101 101 101 102 102 101 101 101 101 101 100 100 100 100 101 101 100
99 94 90 87 87 89 90 92 93 92 91 90 90 93 97 99 101 104 106 107 104 93 82 75 71 71 75 80 83 86 87 88 91 92 92 91 88 86 85 85 85 82 78 73 70 64 57 52 46 41 38 39 42 44 46 48 49 48 49 57 69 80 85 85 87 94 100 102 102 101 101 103 102 101 101 103 103 101 100 100 100 100 100 100 101
96 96 97 98 99 98 98 100 102 102 100 100 99 100 101 101 102 106 108 105 95 85 80 81 82 83 85 87 89 91 92 94 97 99 99 100 100 98 97 97 97 98 98 98 98 94 88 80 71 58 46 36 33 34 36 40 44 47 47 45 48 57 68 73 75 80 90 100 104 102 102 103 102 100 101 104 105 104 103 102 101 100 100 100 100
104 105 105 104 103 102 101 101 101 101 100 100 100 100 100 102 106 109 107 100 92 89 92 92 91 91 91 91 91 92 92 95 100 103 102 101 103 104 102 100 98 98 100 104 105 103 102 101 96 87 75 60 44 33 29 29 31 34 38 40 41 43 50 58 64 71 83 97 104 105 104 102 100 100 102 103 103 104 104 102 101 100 100 100 100
107 106 103 101 100 100 101 100 100 100 100 100 101 101 100 103 106 106 104 99 97 98 99 97 98 99 96 93 92 92 92 92 95 99 101 101 102 104 103 101 99 98 97 97 97 97 98 100 101 100 96 88 74 54 37 28 25 25 27 29 31 34 37 42 50 60 74 88 99 103 104 102 101 102 104 102 101 101 102 102 102 101 100 100 101
104 101 100 100 100 100 100 100 100 101 100 100 101 102 102 102 103 103 103 102 101 100 99 100 103 104 99 96 96 96 95 94 93 95 98 100 100 102 101 100 99 98 95 93 92 93 94 95 96 96 96 96 92 80 60 41 31 28 27 26 26 27 29 31 36 46 62 81 95 101 102 102 103 104 103 101 100 101 101 100 101 100 100 101 101
100 100 100 100 100 101 101 101 100 100 100 102 103 103 102 101 101 101 102 102 101 100 100 102 105 105 103 103 103 101 100 100 98 98 98 98 99 99 99 99 99 97 94 92 91 92 94 96 95 93 91 92 94 92 83 71 58 48 41 37 34 31 29 28 29 34 47 69 90 101 102 101 102 103 102 101 100 101 101 101 101 102 103 103 103
101 102 103 102 101 102 101 100 101 102 102 102 102 102 100 99 99 100 101 101 100 100 101 104 106 107 106 106 106 106 106 105 104 103 102 100 99 97 95 95 96 95 93 91 90 91 94 97 99 97 94 92 90 89 90 91 89 81 70 63 58 53 48 42 37 35 39 51 70 89 100 103 102 102 102 101 100 101 102 103 104 105 105 105 106
101 102 103 102 101 102 103 104 105 105 104 101 98 98 98 97 97 99 99 99 100 102 104 105 106 106 105 104 105 106 106 106 106 107 107 105 102 100 98 95 93 91 91 90 90 91 92 95 100 102 101 99 97 93 92 94 97 98 97 93 89 85 80 73 64 56 52 51 56 68 82 94 102 104 104 103 102 102 102 103 103 103 103 103 101
Wind_Speed
34 34 34 34 34 34 34 34 34 34 34 33 33 34 35 36 37 39 40 40 41 43 43 44 45 45 46 46 47 47 47 48 48 49 50 49 49 49 49 49 50 50 50 49 49 48 47 46 46 46 46 46 46 47 48 48 49 49 50 50 50 49 49 48 48 49 48 48 48 49 49 49 50 50 50 51 51 51 51 52 52 52 53 53 54
36 36 36 35 35 35 35 35 35 35 35 35 34 33 34 35 36 38 39 41 42 43 44 45 44 45 45 46 47 48 49 49 50 50 51 51 51 51 50 50 50 50 50 49 47 46 46 46 46 46 46 46 47 48 48 49 49 50 50 50 50 49 49 49 50 49 49 49 49 50 50 51 51 51 52 52 52 52 52 53 53 54 54 55 56
38 39 39 38 37 37 37 36 36 36 36 36 36 36 35 35 36 37 38 40 41 43 45 46 46 46 47 47 48 50 50 50 52 52 52 52 52 51 51 50 50 50 50 49 47 47 47 47 48 47 47 47 47 48 48 49 49 49 50 50 50 50 50 51 51 50 50 51 51 51 51 52 52 52 53 53 53 54 54 54 54 55 55 55 56
42 42 42 41 40 40 39 39 39 38 38 38 39 39 39 38 38 38 39 40 41 43 44 45 47 48 49 50 51 51 51 50 51 51 51 51 51 50 49 48 48 48 49 49 48 48 48 49 49 48 48 48 48 49 49 50 50 50 50 51 51 51 52 52 52 52 52 52 53 53 53 53 53 53 54 54 54 54 54 54 54 54 55 55 55
46 46 46 46 45 44 43 42 42 42 41 41 42 42 43 43 42 41 41 41 42 43 44 44 46 47 48 50 51 51 51 50 50 49 49 49 48 47 47 47 47 48 49 50 50 50 50 50 51 50 49 49 49 50 51 51 52 52 53 53 53 53 53 53 53 53 54 53 53 53 53 54 54 54 55 55 54 55 55 55 55 55 55 55 55
48 49 49 49 48 47 47 46 45 45 45 45 45 45 46 46 46 45 44 43 44 44 44 44 45 46 47 48 49 50 50 50 49 49 49 48 47 46 47 48 49 50 51 52 52 51 52 52 52 52 51 51 51 52 53 54 54 55 55 56 55 55 55 55 54 54 54 54 54 54 54 55 55 55 56 55 56 56 56 56 56 56 56 55 55
50 51 51 51 51 50 50 49 48 48 48 48 48 48 48 49 49 48 46 45 46 47 47 47 47 46 46 47 48 49 48 48 49 50 50 49 49 49 49 50 51 51 52 52 52 52 52 52 52 53 53 53 53 54 55 56 57 57 58 58 57 57 57 56 55 55 55 54 55 55 56 56 56 56 56 56 56 56 56 56 56 55 55 55 54
51 53 55 55 54 54 53 53 52 52 51 50 50 50 51 51 51 51 49 48 48 49 49 50 49 49 48 48 48 49 49 48 49 50 51 51 51 52 52 52 53 53 53 53 53 53 53 53 53 53 54 54 54 55 56 57 58 59 59 59 59 58 57 55 55 55 55 55 56 57 58 58 57 56 56 56 56 55 55 54 54 53 53 52 52
51 53 55 57 58 58 58 57 56 55 54 53 52 53 53 53 53 53 52 51 51 51 51 52 52 52 52 51 50 51 51 51 51 50 51 52 51 52 53 54 54 54 54 54 55 55 55 54 54 54 54 55 55 56 57 58 59 59 59 59 59 58 56 55 55 55 56 57 58 59 58 57 56 55 55 55 55 54 53 52 52 51 51 50 50
52 53 55 56 58 59 60 60 60 59 58 57 56 56 56 56 56 56 56 55 54 54 54 54 55 55 54 54 53 53 54 54 54 53 53 53 52 53 54 54 54 54 55 56 56 56 56 55 56 56 55 56 56 57 57 58 58 59 59 59 58 57 56 56 56 57 58 59 59 59 57 56 55 54 54 54 54 53 52 51 51 51 50 50 49
55 55 55 56 57 59 61 62 62 63 62 60 59 58 58 58 58 59 60 60 59 57 57 56 57 57 57 57 56 56 56 56 57 56 56 55 54 55 55 55 56 56 56 57 57 57 57 57 57 57 56 57 57 57 58 58 59 59 59 59 59 58 57 57 57 58 59 59 59 57 56 55 54 54 54 54 53 52 52 51 51 51 51 50 50
60 59 58 57 56 57 59 62 62 63 64 63 62 62 62 62 63 63 63 64 63 61 60 60 60 60 60 60 60 59 59 59 59 59 58 58 57 57 58 57 57 57 58 58 58 59 59 59 58 58 58 58 57 57 58 59 59 60 60 60 60 59 58 57 57 58 59 59 58 57 56 55 55 55 55 54 53 53 53 53 52 52 52 51 51
64 63 61 59 56 55 56 59 61 62 64 65 65 66 66 67 68 68 68 67 67 66 65 64 63 63 63 63 63 63 62 62 62 61 61 60 59 59 59 59 59 59 60 60 59 60 61 61 60 60 60 59 58 58 59 59 60 61 61 61 61 60 59 58 58 58 60 60 59 58 57 56 56 56 55 55 55 55 54 54 53 54 54 53 52
65 65 64 63 61 58 56 57 61 63 64 65 66 68 68 69 69 70 71 70 70 70 69 68 67 66 65 65 66 66 66 66 66 65 64 63 61 61 61 60 59 60 60 61 61 62 64 63 63 63 63 62 61 61 61 61 62 62 63 63 62 62 61 61 60 61 61 62 61 60 59 58 58 57 57 56 56 56 56 56 55 55 56 54 54
65 65 65 64 63 62 60 58 59 61 60 59 61 64 66 68 69 69 70 70 70 71 71 71 71 70 69 68 68 69 69 70 70 69 68 66 65 64 63 61 60 61 61 62 63 65 66 66 67 67 66 65 65 65 64 64 64 64 64 65 65 64 63 63 63 63 63 63 63 62 61 60 60 59 59 58 58 57 58 58 57 57 57 56 56
63 64 64 64 64 63 63 62 61 60 60 59 59 60 62 66 68 67 67 69 70 71 72 73 74 74 73 71 71 71 71 72 73 73 72 70 69 67 67 65 63 62 62 62 64 66 67 68 70 70 70 70 70 70 69 68 67 67 67 67 67 66 66 65 65 65 65 65 65 64 63 62 62 61 61 60 60 60 60 59 59 59 59 58 58
62 63 64 65 65 65 65 66 65 66 67 65 64 64 64 66 68 68 70 72 73 73 73 74 75 76 75 74 73 73 73 73 74 75 75 74 73 71 71 69 67 65 64 63 63 64 65 67 69 71 71 73 74 74 73 72 72 72 70 70 69 69 68 68 68 68 67 68 67 67 66 65 64 64 63 63 62 62 62 62 61 61 61 60 60
62 63 63 64 65 65 66 67 68 68 69 69 69 68 67 67 67 68 71 72 73 74 75 74 75 76 77 77 76 75 75 75 75 76 77 77 76 75 74 72 71 70 68 67 67 66 66 67 69 71 72 73 75 75 75 75 75 74 72 72 71 71 71 70 70 70 70 70 70 69 68 67 67 66 66 65 65 64 64 64 64 63 63 63 62
63 63 64 64 65 66 66 67 68 69 69 70 71 71 71 71 70 69 69 71 73 75 76 77 76 76 76 77 77 77 76 76 76 77 79 79 79 78 77 75 74 73 72 72 71 71 70 70 71 72 73 74 75 75 75 76 76 75 74 74 73 72 72 72 72 72 72 72 72 71 71 70 69 69 69 68 67 67 67 67 66 65 65 65 64
63 64 65 66 67 67 68 69 69 70 70 70 71 72 73 73 73 73 72 73 74 75 76 78 79 79 78 77 77 77 76 76 76 76 78 79 80 80 79 78 77 76 75 75 75 75 75 75 74 74 75 76 77 77 76 76 76 76 76 75 74 74 74 73 73 73 73 74 74 74 74 73 72 72 72 71 71 71 70 70 69 68 67 67 67
64 65 65 66 67 68 69 70 70 70 70 70 70 70 71 72 72 73 74 75 76 77 78 79 80 81 81 79 78 78 78 77 76 76 76 77 79 80 80 80 79 79 78 78 77 78 79 79 79 78 77 77 79 79 79 79 77 77 77 76 76 75 75 75 75 74 74 75 75 76 76 75 75 75 75 74 74 74 74 73 72 71 71 70 70
64 65 65 65 66 66 67 68 68 69 69 69 69 68 68 68 69 70 71 73 75 78 81 82 82 83 83 83 82 80 80 79 78 77 77 78 78 79 80 80 80 81 81 80 80 80 81 82 83 82 80 79 80 81 82 82 82 80 79 79 79 78 77 77 76 75 74 74 75 76 76 76 76 76 76 76 77 77 77 77 76 75 74 74 73
65 65 66 66 66 66 66 66 66 66 67 67 67 67 67 67 66 67 67 68 70 72 76 80 83 85 86 87 86 85 84 84 82 81 80 80 80 80 81 82 82 83 83 82 82 82 83 84 86 86 84 82 81 81 83 84 84 84 83 83 82 81 80 79 79 78 76 75 75 75 77 77 77 77 77 77 78 78 79 79 79 78 78 77 77
66 67 67 67 67 66 66 66 66 65 65 65 66 67 67 67 67 67 66 67 67 68 70 72 76 81 86 89 90 90 90 89 88 87 86 84 83 83 83 84 85 86 86 85 85 85 85 87 88 89 88 86 83 82 82 83 83 83 84 84 83 82 82 81 79 78 77 77 76 76 78 78 78 78 78 78 78 79 80 81 80 81 80 80 80
68 68 68 68 68 67 67 67 67 66 65 65 65 66 67 67 67 67 67 67 67 67 67 68 70 73 78 84 88 91 92 92 91 89 88 86 85 85 85 86 87 88 89 88 88 88 88 89 91 92 92 90 87 84 82 82 81 81 81 81 81 81 80 79 77 75 74 74 74 75 76 78 79 79 79 79 79 80 81 81 81 81 81 81 81
69 68 68 68 69 69 69 69 69 68 67 66 65 65 65 66 67 67 67 68 68 67 67 67 68 69 71 74 79 84 88 92 93 93 90 88 87 86 86 87 88 90 91 91 91 90 91 92 93 94 94 93 90 87 84 82 82 81 80 80 79 79 78 77 75 74 72 72 71 71 73 76 78 79 80 80 80 80 81 81 81 81 81 81 81
69 69 68 69 69 70 71 71 70 70 69 67 66 65 65 65 65 66 66 67 68 68 68 67 67 68 69 71 73 75 79 83 88 92 93 93 92 90 90 89 89 90 92 93 94 94 94 94 95 96 96 95 93 91 88 86 84 83 82 81 80 79 78 77 77 76 75 74 73 72 73 75 78 79 80 81 81 82 82 82 82 82 81 82 82
69 69 69 70 70 71 72 72 72 71 70 69 68 67 67 66 65 66 66 66 67 68 68 68 68 68 68 69 71 72 74 76 79 84 88 92 94 94 94 93 93 93 93 93 95 96 97 97 96 96 97 97 96 94 92 89 87 86 85 84 83 82 81 80 80 80 80 79 78 78 77 77 79 81 82 82 82 82 82 82 82 82 82 82 82
71 71 71 71 71 71 71 72 72 72 72 71 71 70 69 68 67 67 66 66 67 68 68 69 69 69 68 68 69 71 72 74 76 78 81 85 89 93 96 97 97 97 97 96 96 96 97 98 98 98 97 97 97 96 95 93 91 90 89 88 87 85 83 82 81 81 81 81 81 81 80 79 80 83 84 84 84 83 83 82 81 81 82 82 82
72 72 72 71 71 70 70 71 71 71 71 71 71 71 71 70 69 68 68 67 68 68 68 69 69 69 69 69 69 70 71 73 74 76 78 80 83 88 92 96 99 100 100 100 99 99 98 98 99 100 100 99 98 97 96 96 95 94 92 91 90 88 85 82 80 80 80 81 82 82 81 80 82 85 86 85 85 83 82 81 81 81 81 81 81
71 72 72 72 72 72 71 71 71 71 71 71 70 70 71 71 70 69 69 69 69 69 69 70 70 70 70 70 70 70 70 71 73 75 76 78 80 83 86 91 96 99 101 103 103 102 101 100 100 100 101 101 101 100 99 98 98 97 96 94 93 90 86 82 80 79 80 81 83 84 84 83 84 86 86 85 83 82 81 80 80 81 81 80 80
73 73 74 74 74 74 73 72 72 72 72 71 71 70 70 70 70 70 70 69 69 69 70 70 71 71 71 71 70 70 70 70 71 73 74 76 78 80 82 84 88 93 98 101 103 104 104 104 102 101 100 100 100 101 101 100 99 98 97 95 93 90 86 83 81 79 79 80 82 83 85 86 85 86 86 85 83 81 81 80 80 80 80 80 79
77 77 77 77 77 77 77 76 75 74 74 74 74 73 72 71 70 69 69 69 69 68 69 69 69 70 70 70 70 69 69 69 69 70 72 74 76 78 79 81 82 85 89 94 98 101 103 104 104 102 100 98 98 98 98 97 97 96 95 94 91 89 86 83 81 79 78 78 79 81 83 84 83 83 83 83 82 81 81 81 80 80 80 79 79
81 82 82 82 82 81 81 80 80 78 78 77 77 76 75 73 71 70 68 68 68 67 68 68 68 68 68 68 68 68 68 68 68 69 70 71 73 75 76 78 79 80 82 84 88 92 95 98 99 99 98 95 93 91 91 91 91 91 90 89 87 85 83 80 78 77 75 75 76 78 80 80 79 79 80 80 80 81 81 81 81 80 80 79 78
85 85 85 84 84 83 83 82 81 80 79 79 78 77 76 74 72 70 68 67 67 66 66 66 66 66 66 66 66 66 67 67 67 68 69 70 71 72 74 75 76 77 78 79 80 82 85 87 89 91 91 90 86 84 83 83 83 84 84 83 81 80 78 76 74 73 73 73 74 77 79 78 77 77 79 80 80 81 82 81 81 80 79 78 77
86 85 83 82 81 79 78 77 76 74 73 73 73 73 73 72 70 68 67 66 65 64 64 64 63 63 63 63 64 64 65 65 66 66 67 68 69 70 71 72 73 74 74 75 76 77 78 79 80 81 82 83 82 81 80 80 80 80 80 80 78 77 76 74 73 71 71 72 74 76 77 77 77 77 79 79 80 81 81 80 79 77 76 75 74
85 82 79 77 74 71 69 66 65 64 64 64 65 66 67 66 65 64 63 63 62 62 61 61 61 60 60 60 61 61 62 62 63 64 65 66 67 68 68 69 69 69 70 71 72 72 73 73 74 74 75 77 80 81 81 80 80 80 80 79 78 77 77 75 74 73 72 72 73 74 75 75 75 75 76 76 77 77 76 76 74 73 73 72 71
79 75 72 69 65 61 59 57 56 56 56 56 57 58 60 60 60 60 60 59 59 59 58 58 57 57 57 57 57 58 59 60 61 62 63 63 63 63 64 64 65 66 67 68 69 70 70 70 70 71 71 73 77 81 82 81 80 80 80 78 77 77 76 75 74 74 73 73 73 74 75 74 74 74 74 74 74 74 73 73 72 71 71 70 69
68 65 64 62 57 54 53 52 51 50 49 50 51 52 53 53 53 54 55 55 55 55 54 53 52 53 53 53 54 55 56 57 58 58 58 57 56 56 56 57 59 61 63 65 67 68 69 70 70 70 70 70 73 79 83 82 81 80 80 77 75 75 74 74 73 73 73 73 73 73 74 74 73 73 73 73 73 72 72 71 71 70 70 69 68
59 58 57 56 52 49 48 48 47 45 44 44 45 46 47 47 47 48 49 49 50 49 47 47 48 49 49 50 51 52 53 53 53 52 51 50 50 50 50 50 52 54 57 60 63 64 66 67 68 69 69 69 70 75 82 84 83 82 81 78 76 74 73 72 72 71 71 71 71 71 71 72 72 72 71 71 71 70 70 70 69 69 68 67 68
53 52 52 51 47 44 44 44 43 42 41 40 40 41 41 41 41 41 42 42 41 40 40 42 44 45 47 48 49 49 49 48 47 46 46 46 46 47 47 48 49 50 52 54 57 59 61 63 64 65 66 67 68 70 76 82 85 85 84 81 78 76 75 73 72 71 70 69 69 68 68 68 68 68 68 68 67 67 67 67 67 67 67 67 68
48 47 46 46 43 40 39 39 39 39 38 37 36 35 34 34 34 35 35 35 34 35 36 38 40 42 43 44 43 42 41 39 39 38 39 40 41 42 44 45 46 47 48 50 52 54 56 57 59 61 62 63 65 66 69 74 81 85 86 85 82 80 78 77 75 73 72 70 69 67 66 66 66 66 65 66 66 66 66 65 65 66 66 67 68
45 42 41 40 38 37 36 35 34 34 34 33 31 29 28 28 29 29 29 29 30 32 34 35 37 38 37 36 35 34 33 32 31 31 32 32 33 34 35 36 37 38 40 42 44 46 48 51 53 56 57 59 61 63 65 67 72 78 83 86 86 84 82 81 79 77 75 73 72 70 69 69 68 67 67 67 67 68 67 65 65 66 67 67 67
40 38 36 35 33 32 31 30 29 28 28 27 26 25 24 24 25 26 26 26 28 30 31 32 32 31 30 30 29 29 28 27 27 27 27 28 28 28 29 29 29 30 31 33 34 36 38 41 44 47 50 53 56 59 61 63 66 69 75 81 85 86 86 84 83 81 79 77 75 74 73 73 72 71 71 71 71 70 69 68 68 68 69 69 68
35 34 32 31 29 27 26 24 24 24 22 22 22 22 22 22 23 23 23 25 26 28 28 27 27 26 26 27 27 27 26 26 26 26 26 27 27 27 27 27 27 27 28 29 30 31 33 35 37 39 42 45 48 51 55 58 61 64 68 73 78 83 85 85 84 83 81 79 78 76 76 76 75 74 74 75 74 73 72 72 71 71 71 71 70
30 29 28 26 24 23 21 20 20 21 20 20 20 21 20 20 20 21 22 24 24 24 23 23 24 25 25 26 26 25 25 25 25 25 25 25 26 26 26 27 27 27 27 28 28 29 31 32 34 35 36 38 40 43 47 50 54 58 62 66 71 75 80 82 83 82 81 80 79 78 78 78 77 77 77 77 77 76 75 75 75 74 74 74 73
26 25 24 23 21 19 18 18 17 18 18 18 19 19 19 18 18 20 21 21 21 20 21 22 23 24 24 24 24 24 24 24 23 23 23 23 24 25 26 26 26 26 27 27 27 28 28 30 31 32 33 34 36 37 40 43 47 51 55 59 63 68 72 76 79 80 80 80 79 79 79 79 79 79 79 79 78 77 77 77 77 77 76 76 75
24 23 22 21 19 18 17 16 16 15 16 17 17 18 17 17 18 19 19 18 18 20 21 22 22 22 22 22 22 22 22 22 22 21 21 22 22 23 24 25 25 26 26 26 25 25 26 26 27 28 29 30 32 33 35 37 40 43 47 51 55 59 63 67 71 74 76 77 78 78 78 78 79 79 79 79 78 78 77 77 77 77 76 76 76
23 22 21 20 19 18 16 15 15 14 14 15 16 16 16 17 17 17 17 17 18 20 21 21 20 20 20 20 20 20 21 21 20 20 20 20 20 21 22 23 24 24 25 25 24 24 23 23 24 24 25 26 27 29 30 31 33 35 38 42 46 51 55 59 63 66 69 71 73 75 75 75 76 77 77 77 77 76 76 76 76 76 75 75 75
23 21 21 20 19 18 17 16 15 14 14 15 15 15 15 16 16 15 16 17 18 20 20 20 20 19 19 19 19 19 19 20 20 20 20 19 19 19 20 20 21 22 22 23 23 23 22 22 22 22 22 23 24 25 26 26 28 30 32 34 38 42 46 51 54 58 61 64 66 68 69 69 69 70 72 73 73 74 74 74 74 74 73 73 73
24 22 21 20 20 19 18 17 16 15 15 15 15 15 15 15 15 16 16 17 19 20 20 20 19 19 19 19 19 19 19 19 20 20 20 20 19 19 19 19 20 20 20 21 21 22 22 22 22 22 22 22 22 23 23 24 25 26 27 29 31 34 38 42 46 49 52 56 58 61 63 64 64 65 66 67 69 70 70 70 71 71 71 72 72
Wind_Direction
279 279 279 280 281 281 280 279 278 276 275 273 271 270 269 266 263 261 259 257 256 255 255 254 254 253 253 252 253 252 252 253 253 254 254 254 254 255 255 255 256 256 256 256 257 258 259 260 260 259 259 259 258 257 257 256 256 256 256 256 256 256 256 255 255 255 255 255 255 256 256 257 257 257 257 258 258 259 259 260 260 261 261 262 262
278 279 280 280 280 279 278 277 277 276 275 274 272 271 270 270 269 267 265 262 260 258 257 257 256 254 253 252 251 251 251 252 253 253 254 254 254 254 255 256 257 258 259 260 260 261 261 260 259 258 258 257 257 257 256 256 256 256 256 256 256 255 255 254 255 255 255 255 256 256 257 257 258 258 258 259 259 260 261 261 262 262 263 263 263
277 277 278 279 279 279 278 277 275 274 274 273 273 272 271 270 270 270 269 266 264 262 260 260 258 256 254 253 252 251 251 251 252 252 253 254 255 255 255 256 258 259 261 261 261 261 260 259 258 257 256 256 256 256 256 256 256 255 255 255 254 254 253 254 254 254 254 255 256 256 257 258 258 259 260 261 261 262 263 263 263 264 264 264 264
277 276 276 277 278 277 276 276 275 274 273 273 272 271 271 271 271 271 270 269 268 266 265 264 261 259 257 256 256 256 255 254 253 254 254 255 256 257 258 258 258 259 260 260 259 258 257 257 256 255 255 254 254 254 254 254 254 254 254 253 253 252 252 253 253 253 254 254 255 256 257 258 259 260 261 261 262 263 263 263 264 264 265 265 265
275 274 274 274 275 275 274 274 274 273 272 272 271 270 270 270 270 271 270 270 269 268 268 268 266 264 262 261 260 260 259 257 256 256 255 255 255 256 257 256 255 254 254 254 254 254 253 253 254 253 252 252 252 252 252 252 252 252 252 252 252 252 252 253 253 254 255 255 256 256 257 258 259 260 260 261 262 262 263 263 264 264 265 265 265
272 272 272 273 273 273 273 273 272 271 271 270 269 269 269 269 269 269 269 270 269 268 267 266 266 266 266 265 264 262 260 259 257 256 255 254 253 252 252 252 251 251 252 252 253 252 252 252 252 252 251 251 251 251 251 251 251 251 252 252 252 252 253 254 255 255 256 256 257 257 257 258 258 259 260 261 261 262 262 263 263 264 264 264 264
269 269 269 269 269 269 270 271 270 269 269 268 268 267 267 267 267 267 268 268 269 268 267 265 265 266 266 266 265 264 262 260 258 256 255 254 252 251 251 251 251 252 252 253 253 253 253 253 253 253 253 251 251 250 251 251 251 251 251 252 252 252 253 255 255 255 256 257 257 257 257 257 258 259 260 260 261 261 262 262 262 263 263 263 264
264 265 266 267 267 267 268 268 268 268 267 266 265 264 264 264 264 265 266 267 268 268 267 267 265 265 265 264 264 264 263 261 259 257 256 255 254 253 253 252 252 253 253 253 254 254 253 253 253 253 253 253 252 251 251 251 251 251 252 252 253 254 255 255 255 256 256 256 255 255 256 257 258 259 259 260 260 261 261 261 262 262 262 262 262
261 261 263 264 265 267 268 268 267 267 266 264 263 261 260 260 260 261 263 265 266 267 267 266 266 265 264 264 263 263 262 261 260 258 257 257 256 256 255 255 254 254 254 254 254 254 254 253 252 252 252 252 252 251 250 251 251 252 252 253 254 254 255 255 255 254 254 254 254 255 256 257 258 258 259 259 260 260 260 260 261 260 260 260 260
265 263 262 262 263 265 266 266 267 266 265 263 261 259 258 257 258 259 261 263 264 264 263 263 263 264 264 264 263 262 261 261 260 260 259 260 259 259 258 257 256 255 254 254 254 255 255 254 253 252 251 251 251 251 250 250 251 251 252 253 253 254 254 253 253 253 253 254 254 255 256 257 258 258 258 258 259 259 259 259 259 260 260 260 261
273 270 268 265 264 263 263 264 265 265 265 264 261 258 257 257 257 259 260 262 262 261 260 260 259 260 260 261 261 260 260 260 260 261 261 261 261 261 260 258 257 255 254 254 254 254 254 253 253 252 251 250 250 250 250 250 251 251 252 252 253 253 253 253 252 252 253 254 255 256 257 257 257 257 257 258 259 259 259 259 259 259 260 260 261
276 275 274 271 267 265 263 262 262 263 264 263 262 260 258 259 260 261 261 261 261 260 258 257 257 257 257 257 258 257 258 258 259 260 260 261 261 261 260 259 258 257 256 255 255 255 254 253 252 252 250 250 249 250 250 250 251 251 251 252 252 253 253 252 252 253 254 254 255 256 256 256 256 257 257 258 258 258 259 259 259 259 259 259 260
276 275 275 274 271 267 263 259 257 260 262 262 262 262 261 261 261 262 261 261 260 259 258 257 256 255 255 254 254 254 255 256 256 257 258 259 260 261 261 260 260 259 258 258 256 254 253 252 251 251 250 249 249 248 249 249 250 250 251 251 251 252 252 252 252 252 253 254 255 255 256 256 256 257 257 258 258 258 259 259 259 259 259 260 260
274 274 274 274 273 271 266 258 254 257 261 262 262 262 262 262 261 261 261 260 259 258 257 257 256 255 254 253 253 252 252 253 254 254 254 255 257 259 260 259 259 259 258 258 257 253 252 252 251 250 250 249 248 248 248 248 249 250 250 251 251 251 251 251 251 251 252 254 254 255 256 256 256 257 257 257 258 258 259 259 259 260 260 261 261
273 273 273 273 273 272 271 266 260 259 261 261 260 261 261 261 260 259 259 258 257 257 257 257 257 256 254 253 252 252 251 251 251 252 252 252 253 254 256 257 258 259 259 258 257 255 254 254 253 251 251 250 248 248 247 247 248 249 250 251 251 252 252 252 252 252 253 254 255 255 256 256 256 257 257 258 258 259 259 259 260 260 261 261 261
272 272 272 272 272 271 271 269 266 263 261 258 256 256 257 257 257 257 257 258 258 258 257 257 257 256 255 253 252 251 251 251 251 251 251 251 251 251 252 253 254 256 259 259 259 258 257 256 255 254 253 252 250 249 249 248 248 248 249 250 251 252 253 253 253 253 254 255 255 256 256 257 257 257 258 258 258 258 259 259 260 260 260 261 261
272 271 271 271 271 271 270 270 269 267 266 264 260 258 256 254 254 254 257 259 260 259 258 257 257 256 256 255 253 252 251 251 251 251 251 251 250 250 250 251 251 252 254 256 257 257 257 257 257 256 256 255 254 253 253 252 251 251 251 251 251 252 253 253 254 254 255 256 256 257 257 257 258 258 258 258 258 259 259 260 260 260 260 261 261
274 273 273 272 272 271 271 271 270 270 270 269 268 266 263 260 256 255 255 256 257 259 259 259 257 256 256 255 255 254 252 251 251 251 251 251 251 250 250 250 250 251 251 252 254 254 254 254 255 255 255 255 256 256 256 255 254 254 254 254 253 253 253 254 254 255 256 256 257 258 258 258 259 259 259 259 259 260 260 260 260 260 261 261 261
278 277 276 275 274 273 272 271 270 270 269 268 268 267 266 263 260 257 254 253 253 255 257 259 259 258 256 255 255 254 253 252 251 251 250 250 251 251 251 250 251 251 252 252 252 253 254 254 253 253 253 253 254 254 255 255 256 256 256 256 255 255 255 256 256 256 256 257 258 258 259 259 260 260 260 260 260 260 260 261 261 261 261 261 261
278 277 276 275 274 273 272 271 270 270 269 268 267 266 266 264 262 259 256 253 252 251 252 254 256 258 258 257 256 254 253 252 251 251 250 250 250 250 250 251 251 252 253 253 252 253 254 255 255 254 253 252 252 252 252 253 254 254 255 255 255 255 256 256 256 257 257 258 259 259 260 260 260 260 260 260 261 261 261 261 261 261 261 262 262
277 276 274 274 273 273 272 271 270 270 269 268 267 267 266 265 264 263 260 256 253 251 250 250 251 253 255 256 256 255 254 252 250 250 250 251 251 251 251 251 252 253 254 254 254 253 253 255 256 256 254 253 252 252 251 251 251 251 252 252 252 253 254 255 255 256 257 258 259 260 260 261 261 261 261 261 261 261 261 261 261 261 261 262 262
275 274 273 272 272 271 271 271 270 270 270 269 269 267 266 265 265 264 263 261 257 254 252 251 250 250 252 253 254 254 254 253 252 250 251 251 252 253 254 254 254 253 253 253 254 254 254 255 257 257 257 254 252 252 251 251 250 250 249 250 250 250 251 252 253 254 255 257 258 259 260 260 261 262 263 263 263 263 263 263 262 262 262 262 262
276 275 274 274 273 272 271 271 271 270 270 269 269 269 268 266 265 264 263 263 262 259 255 253 251 250 250 251 252 253 253 254 253 253 253 253 253 254 255 255 255 254 254 253 254 254 255 255 256 257 258 257 255 252 251 251 251 250 250 249 249 249 249 250 251 252 253 254 256 258 259 259 260 261 262 262 263 264 264 264 264 264 263 263 263
279 278 277 276 275 274 274 273 272 271 270 270 269 269 269 268 266 265 264 263 262 262 260 258 255 252 250 250 251 252 253 255 255 255 255 255 255 255 255 255 255 255 255 255 255 255 255 255 255 256 257 258 257 255 252 251 251 251 251 251 250 250 250 250 251 252 253 253 255 256 257 258 258 259 260 261 261 262 263 264 264 265 265 265 265
280 279 278 277 276 276 275 274 273 272 272 271 271 271 270 269 268 267 266 264 263 262 262 261 259 257 254 252 251 251 252 253 255 257 257 257 256 255 255 255 254 254 254 254 254 255 256 256 256 255 255 256 257 256 254 252 250 249 249 250 250 250 251 251 251 252 253 254 255 256 257 258 258 259 259 260 261 261 262 263 264 265 265 266 266
280 279 278 277 276 276 275 275 274 273 273 272 272 272 271 271 270 269 268 267 265 264 262 261 261 260 258 256 254 253 252 252 253 254 256 257 257 256 255 254 254 253 253 253 254 254 255 255 255 255 255 255 255 255 254 252 250 249 248 248 249 249 250 250 251 252 254 255 257 259 260 260 260 260 260 260 260 261 262 262 263 264 265 266 266
280 279 278 278 277 277 276 276 275 274 273 273 272 271 271 270 270 270 269 268 267 266 265 263 262 261 261 260 259 257 255 254 253 253 253 254 255 255 255 255 254 253 253 253 253 253 254 254 254 254 254 254 254 254 254 253 252 251 250 249 249 249 250 252 253 254 256 258 260 263 264 263 262 262 261 261 260 260 261 262 263 264 264 265 266
279 278 278 278 277 277 276 275 275 274 274 273 272 271 270 269 269 269 269 269 268 267 266 265 264 263 262 261 261 260 259 258 256 255 254 253 253 254 254 254 254 254 253 253 253 253 253 253 252 252 252 252 252 252 253 253 252 252 251 251 251 252 253 254 255 256 258 259 261 264 266 266 265 263 262 261 260 260 260 261 262 263 264 265 265
281 280 279 278 277 276 275 275 274 274 274 273 273 272 271 270 269 268 268 268 268 268 268 267 266 264 263 262 261 261 261 260 259 258 256 255 254 254 254 254 254 254 254 253 253 253 252 252 252 251 251 251 251 251 252 252 252 252 252 253 254 255 256 257 257 258 259 261 262 264 267 268 265 262 261 260 259 259 259 260 261 262 263 264 265
284 282 281 279 278 277 276 276 275 275 274 274 273 273 272 271 270 270 269 269 269 269 268 268 268 267 265 264 262 262 262 261 261 260 259 258 256 255 255 254 254 254 253 253 254 253 253 252 252 252 251 251 251 251 251 252 252 253 253 254 255 256 257 258 259 259 261 262 264 266 268 269 264 259 258 258 257 258 258 259 260 261 262 263 264
284 283 282 280 279 279 278 277 276 275 274 273 272 272 272 271 271 270 270 270 269 269 268 268 268 268 267 266 265 264 263 262 262 261 261 260 259 257 256 255 255 254 254 254 254 254 254 254 253 253 252 252 252 252 252 253 253 254 255 256 257 258 259 259 260 260 261 262 264 266 269 268 263 258 256 256 256 256 257 258 259 260 261 263 264
283 282 282 281 280 279 278 277 276 275 275 274 273 272 271 270 270 270 270 269 269 269 268 268 267 267 267 267 266 266 265 264 263 262 262 261 260 259 258 257 256 255 254 254 254 255 255 255 255 255 254 254 254 254 254 255 255 256 257 258 259 259 260 260 260 260 260 260 262 264 267 266 262 258 257 256 256 256 256 257 258 259 261 262 262
284 283 282 280 279 278 277 276 276 275 275 275 275 274 272 271 270 270 269 269 269 269 269 268 268 268 268 268 267 267 266 265 264 263 263 262 261 261 260 259 258 256 255 255 254 255 255 255 256 256 256 256 256 255 255 256 256 257 258 259 260 260 260 260 259 258 258 258 260 262 264 262 259 258 258 257 257 257 257 257 258 259 260 261 261
286 285 283 282 280 279 278 277 276 275 275 275 275 275 274 273 272 271 270 270 269 269 269 270 270 270 270 270 270 269 268 267 266 265 264 263 263 262 261 261 260 259 257 256 255 255 254 254 255 255 256 256 256 256 256 256 256 256 257 257 258 258 258 257 257 256 256 256 257 259 260 259 257 257 257 256 256 256 256 257 258 258 259 260 260
290 288 287 285 283 281 280 278 277 277 276 275 274 274 273 273 272 271 271 270 269 269 270 270 270 271 271 271 271 270 269 269 268 267 266 266 265 264 263 262 261 261 260 258 257 256 255 254 254 254 254 253 253 253 253 253 253 253 253 253 253 253 253 253 253 253 253 254 255 257 257 256 255 255 255 255 255 255 256 256 257 258 258 258 258
293 291 290 288 286 284 282 281 280 278 276 275 273 272 270 270 270 270 270 270 270 270 271 271 272 271 271 271 270 270 270 270 270 269 268 268 267 266 265 264 263 262 261 260 259 257 256 255 254 254 252 250 248 248 247 247 248 249 249 249 249 249 249 249 249 250 251 252 253 254 254 254 253 253 253 253 254 254 255 255 255 255 255 255 255
295 295 293 291 290 288 286 284 282 280 278 275 273 271 269 268 268 268 269 269 270 271 272 272 272 272 271 271 271 271 271 271 271 271 271 270 270 268 267 265 263 261 260 260 259 258 257 256 254 253 252 248 245 244 243 243 244 246 247 247 246 247 247 247 248 249 250 250 250 251 251 251 251 251 251 251 251 252 252 253 253 253 253 253 253
299 299 297 294 292 291 289 287 283 281 279 276 274 271 269 267 266 267 268 269 270 271 272 272 272 272 271 271 272 272 273 273 273 273 273 273 271 270 267 265 262 260 258 258 257 257 257 256 255 253 251 249 245 242 241 241 241 243 245 245 245 246 246 247 247 248 249 249 249 249 249 249 249 249 249 249 249 250 250 251 251 251 251 252 252
302 300 298 296 295 293 291 288 286 283 280 277 274 272 270 268 267 267 267 268 270 270 271 271 271 271 272 272 273 274 275 275 275 275 274 273 271 269 267 265 262 259 257 256 256 256 256 256 255 254 252 249 246 243 241 241 241 242 242 242 242 244 245 245 246 246 246 247 247 247 247 247 247 247 247 248 248 249 250 250 250 251 251 251 252
301 300 298 297 296 294 291 289 287 285 282 278 275 272 271 269 268 267 267 267 268 269 270 270 271 272 273 274 275 276 277 277 276 275 273 272 271 269 267 265 263 260 258 256 256 256 256 256 256 255 253 250 248 244 242 242 242 243 242 241 240 241 242 243 243 244 244 244 245 245 245 245 246 246 247 248 249 249 250 250 250 251 251 252 252
301 299 298 297 296 293 291 290 289 287 284 280 276 273 271 269 267 266 266 266 267 268 269 269 271 273 275 277 278 278 278 277 276 274 273 271 270 268 267 265 264 262 260 259 258 257 257 256 256 256 254 252 250 246 244 242 243 244 244 243 241 241 241 242 242 243 243 243 243 243 244 245 246 247 247 248 249 249 250 250 251 251 252 252 252
301 299 298 297 296 294 292 290 289 288 285 282 279 275 272 270 268 266 266 267 268 268 268 269 272 275 277 279 279 278 278 277 276 274 273 272 271 269 268 267 266 264 263 261 260 259 258 258 257 256 255 254 252 249 246 244 243 243 244 244 243 242 242 242 243 244 244 244 243 244 244 244 245 246 248 249 250 250 250 251 252 252 252 253 254
304 302 300 298 297 296 294 291 289 286 285 283 281 277 274 272 269 268 268 268 267 268 270 273 276 278 278 278 278 277 276 276 276 275 275 274 273 272 271 269 268 266 265 264 262 261 260 259 258 256 255 254 252 251 249 247 245 244 244 244 244 244 244 244 245 246 246 246 245 245 245 245 245 246 247 248 249 250 250 251 252 252 253 253 253
306 305 303 302 300 298 296 293 290 287 285 283 282 280 277 273 272 270 270 269 270 273 276 278 278 277 277 277 278 278 277 278 278 278 277 276 275 273 272 271 270 269 268 267 266 264 262 261 259 258 256 254 253 252 250 249 247 246 245 245 244 244 244 245 245 246 247 247 247 247 246 246 246 246 247 247 248 249 249 249 250 251 252 252 253
310 309 308 306 304 302 299 296 293 290 287 285 283 281 277 274 272 271 271 273 276 279 279 278 278 278 280 280 280 280 281 282 282 280 277 275 273 273 272 272 272 271 271 271 270 268 266 264 262 260 259 257 255 253 251 250 248 247 246 245 244 243 243 243 244 245 246 246 247 246 246 246 246 246 247 247 247 247 248 248 249 249 250 252 253
315 314 312 311 309 306 303 299 295 292 290 287 283 280 277 274 273 274 276 279 280 279 278 278 280 282 283 283 282 283 283 284 283 281 277 274 271 270 270 270 271 271 272 272 272 270 268 267 265 264 262 260 257 255 253 251 249 248 247 246 245 243 242 242 242 243 243 244 244 244 245 245 245 245 245 246 246 247 247 248 248 249 249 250 251
323 321 319 316 313 309 305 301 296 292 289 286 282 279 278 276 277 279 280 279 278 277 278 280 282 283 283 283 282 283 283 284 283 281 277 274 271 269 268 268 269 270 271 272 273 272 270 268 266 265 264 263 261 258 255 253 251 249 248 247 247 245 243 241 241 241 241 241 242 243 243 244 244 245 245 246 246 247 247 248 248 249 249 250 251
330 327 325 321 318 315 311 305 299 293 288 284 282 281 280 281 282 281 279 276 277 278 279 280 281 282 282 282 282 282 283 284 284 283 280 277 273 270 268 268 268 268 269 271 272 272 270 267 266 265 265 264 262 261 259 257 255 253 251 250 249 248 245 243 241 241 240 241 241 242 242 243 244 245 245 246 247 247 248 248 249 249 249 250 251
335 332 329 325 323 320 316 311 305 298 292 288 285 283 283 284 283 279 276 276 278 280 280 281 281 281 282 282 282 282 283 284 285 285 284 281 278 274 271 270 269 269 269 270 271 272 271 268 266 265 265 264 263 262 261 260 258 256 254 253 251 250 248 246 244 242 242 241 242 242 243 244 245 246 247 247 247 248 248 249 249 250 250 251 252
338 336 332 330 328 325 322 318 313 307 300 294 289 286 286 285 281 275 274 277 279 281 282 283 282 282 282 283 283 283 283 283 284 285 285 284 282 280 277 275 273 272 271 272 272 273 273 271 269 267 266 265 264 263 261 260 258 257 255 254 253 252 250 249 247 245 244 243 243 243 244 245 246 248 248 249 249 249 250 250 251 251 251 252 252
340 339 337 335 332 330 327 324 320 313 305 298 292 288 287 285 280 275 275 277 279 280 282 284 284 284 285 285 286 286 285 285 285 284 284 283 282 281 280 279 278 276 275 274 274 274 273 273 272 271 269 267 266 265 263 261 259 258 257 255 253 252 251 250 249 248 247 246 245 245 244 245 246 248 249 250 250 251 251 251 252 252 252 253 253